PAL2981 RPLL-RPVE

Flight info

Callsign PAL2981
Flight time 0h 36m
Altitude 25000
Route VERDE2V VERDE W24 TAPER TAPER7B
Aircraft B736/M-SDE2E3FGHIRWXY/LB1

Departure

Time 2026-04-22 13:24
Airport Ninoy Aquino International Airport (RPLL)

Arrival

Time 2026-04-22 14:01
Airport Godofredo P. Ramos Airport (RPVE)
Time Latitude Longitude Altitude Speed Heading
2026-04-22 12:45 14.51064 121.01359 67 ft 0 kts 221°
2026-04-22 13:11 14.51065 121.01360 40 ft 2 kts 220°
2026-04-22 13:11 14.51078 121.01371 60 ft 2 kts 222°
2026-04-22 13:11 14.51090 121.01383 64 ft 2 kts 224°
2026-04-22 13:11 14.51101 121.01395 58 ft 2 kts 228°
2026-04-22 13:12 14.51112 121.01408 58 ft 2 kts 237°
2026-04-22 13:12 14.51118 121.01424 61 ft 2 kts 275°
2026-04-22 13:12 14.51113 121.01437 59 ft 1 kts 313°
2026-04-22 13:12 14.51112 121.01438 60 ft 0 kts 314°
2026-04-22 13:17 14.51113 121.01438 60 ft 1 kts 314°
2026-04-22 13:17 14.51121 121.01428 62 ft 3 kts 314°
2026-04-22 13:17 14.51139 121.01410 61 ft 4 kts 314°
2026-04-22 13:17 14.51158 121.01391 66 ft 4 kts 315°
2026-04-22 13:18 14.51179 121.01372 67 ft 4 kts 328°
2026-04-22 13:18 14.51207 121.01367 64 ft 5 kts
2026-04-22 13:18 14.51242 121.01388 67 ft 7 kts 41°
2026-04-22 13:18 14.51281 121.01429 65 ft 9 kts 45°
2026-04-22 13:19 14.51341 121.01452 63 ft 10 kts 344°
2026-04-22 13:19 14.51394 121.01405 63 ft 11 kts 314°
2026-04-22 13:19 14.51450 121.01347 63 ft 12 kts 315°
2026-04-22 13:19 14.51511 121.01284 68 ft 13 kts 315°
2026-04-22 13:20 14.51580 121.01213 65 ft 15 kts 315°
2026-04-22 13:20 14.51656 121.01134 68 ft 15 kts 314°
2026-04-22 13:20 14.51735 121.01052 64 ft 17 kts 315°
2026-04-22 13:20 14.51822 121.00962 69 ft 19 kts 315°
2026-04-22 13:21 14.51914 121.00867 65 ft 19 kts 315°
2026-04-22 13:21 14.52004 121.00774 68 ft 18 kts 315°
2026-04-22 13:21 14.52090 121.00683 64 ft 17 kts 315°
2026-04-22 13:21 14.52179 121.00591 62 ft 18 kts 315°
2026-04-22 13:22 14.52254 121.00515 64 ft 13 kts 315°
2026-04-22 13:22 14.52286 121.00454 64 ft 8 kts 300°
2026-04-22 13:22 14.52306 121.00453 65 ft 2 kts 60°
2026-04-22 13:22 14.52298 121.00468 64 ft 3 kts 131°
2026-04-22 13:23 14.52294 121.00472 65 ft 0 kts 134°
2026-04-22 13:23 14.52291 121.00476 67 ft 9 kts 134°
2026-04-22 13:24 14.52061 121.00713 67 ft 84 kts 134°
2026-04-22 13:24 14.51495 121.01301 67 ft 144 kts 135°
2026-04-22 13:24 14.50730 121.02103 471 ft 158 kts 135°
2026-04-22 13:24 14.49960 121.02899 1158 ft 161 kts 135°
2026-04-22 13:25 14.49186 121.03690 1894 ft 156 kts 133°
2026-04-22 13:25 14.48377 121.04530 2283 ft 179 kts 134°
2026-04-22 13:25 14.47443 121.05501 2562 ft 206 kts 134°
2026-04-22 13:25 14.46372 121.06618 2791 ft 231 kts 134°
2026-04-22 13:26 14.45186 121.07854 3100 ft 255 kts 135°
2026-04-22 13:26 14.43828 121.09071 3683 ft 265 kts 152°
2026-04-22 13:26 14.42047 121.09501 4469 ft 268 kts 180°
2026-04-22 13:26 14.40182 121.09203 5136 ft 275 kts 192°
2026-04-22 13:27 14.38309 121.08726 5872 ft 279 kts 193°
2026-04-22 13:27 14.36408 121.08228 6621 ft 284 kts 193°
2026-04-22 13:27 14.34483 121.07736 7340 ft 289 kts 192°
2026-04-22 13:27 14.32505 121.07245 8149 ft 292 kts 192°
2026-04-22 13:28 14.30519 121.06757 8965 ft 296 kts 192°
2026-04-22 13:28 14.28490 121.06416 9800 ft 300 kts 183°
2026-04-22 13:28 14.26388 121.06300 10488 ft 310 kts 180°
2026-04-22 13:28 14.24143 121.06242 10830 ft 331 kts 180°
2026-04-22 13:29 14.21814 121.06189 11547 ft 337 kts 180°
2026-04-22 13:29 14.19451 121.06124 12396 ft 340 kts 181°
2026-04-22 13:29 14.17073 121.06047 13248 ft 343 kts 181°
2026-04-22 13:29 14.14688 121.05959 14059 ft 346 kts 182°
2026-04-22 13:30 14.12262 121.05863 14777 ft 350 kts 182°
2026-04-22 13:30 14.09819 121.05761 15495 ft 354 kts 182°
2026-04-22 13:30 14.07346 121.05656 16214 ft 358 kts 182°
2026-04-22 13:30 14.04838 121.05547 16922 ft 362 kts 182°
2026-04-22 13:31 14.02300 121.05437 17637 ft 366 kts 182°
2026-04-22 13:31 13.99736 121.05325 18309 ft 371 kts 182°
2026-04-22 13:31 13.97147 121.05212 18901 ft 375 kts 182°
2026-04-22 13:31 13.94529 121.05098 19516 ft 378 kts 183°
2026-04-22 13:32 13.91901 121.04984 20125 ft 381 kts 183°
2026-04-22 13:32 13.89262 121.04868 20719 ft 385 kts 183°
2026-04-22 13:32 13.86575 121.04751 21315 ft 389 kts 183°
2026-04-22 13:32 13.83861 121.04633 21912 ft 392 kts 184°
2026-04-22 13:33 13.81121 121.04514 22490 ft 396 kts 184°
2026-04-22 13:33 13.78356 121.04393 23069 ft 399 kts 184°
2026-04-22 13:33 13.75568 121.04272 23704 ft 399 kts 184°
2026-04-22 13:33 13.72803 121.04152 24364 ft 397 kts 184°
2026-04-22 13:34 13.70034 121.04032 24720 ft 397 kts 184°
2026-04-22 13:34 13.67289 121.03913 24918 ft 395 kts 184°
2026-04-22 13:34 13.64532 121.03793 24909 ft 396 kts 184°
2026-04-22 13:34 13.61788 121.03674 24923 ft 395 kts 184°
2026-04-22 13:35 13.59046 121.03555 24926 ft 394 kts 184°
2026-04-22 13:35 13.56309 121.03436 24931 ft 394 kts 184°
2026-04-22 13:35 13.53560 121.03335 24930 ft 394 kts 180°
2026-04-22 13:35 13.50839 121.03701 24930 ft 396 kts 166°
2026-04-22 13:36 13.48249 121.04670 24931 ft 398 kts 154°
2026-04-22 13:36 13.45903 121.06166 24943 ft 398 kts 146°
2026-04-22 13:36 13.43630 121.07817 24934 ft 399 kts 145°
2026-04-22 13:36 13.41375 121.09470 24929 ft 399 kts 146°
2026-04-22 13:37 13.39089 121.11108 24934 ft 399 kts 146°
2026-04-22 13:37 13.36831 121.12702 24938 ft 399 kts 146°
2026-04-22 13:37 13.34509 121.14330 24935 ft 399 kts 146°
2026-04-22 13:37 13.32215 121.15937 24936 ft 399 kts 146°
2026-04-22 13:38 13.29919 121.17546 24941 ft 399 kts 146°
2026-04-22 13:38 13.25338 121.20757 24938 ft 399 kts 146°
2026-04-22 13:38 13.23044 121.22365 24940 ft 399 kts 146°
2026-04-22 13:39 13.20754 121.23971 24942 ft 399 kts 146°
2026-04-22 13:39 13.18464 121.25576 24943 ft 398 kts 146°
2026-04-22 13:39 13.16209 121.27157 24820 ft 398 kts 146°
2026-04-22 13:39 13.13931 121.28754 24583 ft 394 kts 146°
2026-04-22 13:40 13.11673 121.30335 24362 ft 391 kts 146°
2026-04-22 13:40 13.09433 121.31904 24147 ft 390 kts 146°
2026-04-22 13:40 13.07188 121.33476 23932 ft 390 kts 146°
2026-04-22 13:40 13.04950 121.35043 23718 ft 390 kts 146°
2026-04-22 13:41 13.02703 121.36616 23501 ft 389 kts 146°
2026-04-22 13:41 13.00469 121.38179 23246 ft 389 kts 146°
2026-04-22 13:41 12.98234 121.39743 22986 ft 388 kts 146°
2026-04-22 13:41 12.96762 121.40772 22825 ft 387 kts 146°
2026-04-22 13:42 12.94545 121.42323 22565 ft 385 kts 146°
2026-04-22 13:42 12.92334 121.43869 22313 ft 384 kts 146°
2026-04-22 13:42 12.89392 121.45925 21979 ft 381 kts 146°
2026-04-22 13:42 12.87205 121.47454 21735 ft 379 kts 146°
2026-04-22 13:43 12.85030 121.48974 21482 ft 378 kts 146°
2026-04-22 13:43 12.83593 121.49977 21280 ft 376 kts 146°
2026-04-22 13:43 12.80744 121.51967 20758 ft 371 kts 146°
2026-04-22 13:43 12.78616 121.53453 20343 ft 368 kts 146°
2026-04-22 13:44 12.76508 121.54925 19927 ft 366 kts 146°
2026-04-22 13:44 12.74410 121.56389 19492 ft 364 kts 146°
2026-04-22 13:44 12.73028 121.57354 19209 ft 363 kts 145°
2026-04-22 13:44 12.70934 121.58815 18778 ft 362 kts 145°
2026-04-22 13:45 12.68853 121.60267 18341 ft 360 kts 145°
2026-04-22 13:45 12.66786 121.61709 17868 ft 359 kts 145°
2026-04-22 13:45 12.64726 121.63145 17424 ft 356 kts 145°
2026-04-22 13:45 12.62691 121.64564 16985 ft 354 kts 145°
2026-04-22 13:46 12.60660 121.65980 16560 ft 351 kts 145°
2026-04-22 13:46 12.58651 121.67381 16138 ft 348 kts 146°
2026-04-22 13:46 12.56658 121.68770 15734 ft 345 kts 146°
2026-04-22 13:46 12.54677 121.70150 15306 ft 343 kts 146°
2026-04-22 13:47 12.52708 121.71522 14874 ft 342 kts 146°
2026-04-22 13:47 12.50744 121.72890 14447 ft 341 kts 146°
2026-04-22 13:47 12.48787 121.74252 14019 ft 339 kts 146°
2026-04-22 13:47 12.46841 121.75607 13586 ft 338 kts 146°
2026-04-22 13:48 12.44901 121.76958 13206 ft 334 kts 146°
2026-04-22 13:48 12.43011 121.78274 12798 ft 331 kts 146°
2026-04-22 13:48 12.41108 121.79598 12398 ft 328 kts 146°
2026-04-22 13:48 12.39233 121.80902 12006 ft 326 kts 146°
2026-04-22 13:49 12.37270 121.82043 11580 ft 323 kts 162°
2026-04-22 13:49 12.35072 121.82395 11147 ft 320 kts 184°
2026-04-22 13:49 12.32887 121.82042 10757 ft 317 kts 192°
2026-04-22 13:49 12.30732 121.81572 10369 ft 315 kts 193°
2026-04-22 13:50 12.28632 121.81095 10229 ft 304 kts 193°
2026-04-22 13:50 12.26599 121.80633 10087 ft 294 kts 193°
2026-04-22 13:50 12.24626 121.80191 9829 ft 288 kts 193°
2026-04-22 13:50 12.22693 121.79762 9488 ft 282 kts 193°
2026-04-22 13:51 12.20775 121.79339 9162 ft 280 kts 192°
2026-04-22 13:51 12.18875 121.78923 8847 ft 279 kts 192°
2026-04-22 13:51 12.16982 121.78510 8531 ft 277 kts 192°
2026-04-22 13:51 12.15100 121.78100 8211 ft 276 kts 192°
2026-04-22 13:52 12.13229 121.77694 7934 ft 271 kts 191°
2026-04-22 13:52 12.11414 121.77300 7630 ft 262 kts 191°
2026-04-22 13:52 12.09664 121.76920 7321 ft 252 kts 191°
2026-04-22 13:52 12.08000 121.76559 7024 ft 244 kts 190°
2026-04-22 13:53 12.06353 121.76204 6746 ft 240 kts 190°
2026-04-22 13:53 12.04731 121.75853 6471 ft 237 kts 190°
2026-04-22 13:53 12.03119 121.75505 6198 ft 236 kts 190°
2026-04-22 13:53 12.01515 121.75158 5913 ft 235 kts 189°
2026-04-22 13:54 11.99916 121.74812 5635 ft 234 kts 190°
2026-04-22 13:54 11.98328 121.74469 5371 ft 233 kts 189°
2026-04-22 13:54 11.96744 121.74125 5104 ft 232 kts 189°
2026-04-22 13:54 11.95166 121.73784 4838 ft 232 kts 189°
2026-04-22 13:55 11.93585 121.73442 4570 ft 232 kts 189°
2026-04-22 13:55 11.92016 121.73106 4419 ft 225 kts 187°
2026-04-22 13:55 11.90510 121.73247 4338 ft 215 kts 158°
2026-04-22 13:55 11.89142 121.73874 4286 ft 221 kts 150°
2026-04-22 13:56 11.87758 121.74604 4200 ft 226 kts 150°
2026-04-22 13:56 11.86364 121.75340 4102 ft 224 kts 150°
2026-04-22 13:56 11.85053 121.76168 3972 ft 220 kts 133°
2026-04-22 13:56 11.84309 121.77483 3724 ft 211 kts 102°
2026-04-22 13:57 11.84299 121.78936 3478 ft 203 kts 77°
2026-04-22 13:57 11.84809 121.80252 3225 ft 197 kts 65°
2026-04-22 13:57 11.85417 121.81452 2959 ft 185 kts 64°
2026-04-22 13:57 11.86001 121.82592 2701 ft 177 kts 65°
2026-04-22 13:58 11.86562 121.83693 2476 ft 174 kts 65°
2026-04-22 13:58 11.87124 121.84797 2256 ft 176 kts 64°
2026-04-22 13:58 11.87694 121.85925 2019 ft 178 kts 64°
2026-04-22 13:58 11.88239 121.87002 1785 ft 166 kts 63°
2026-04-22 13:59 11.88744 121.88002 1557 ft 152 kts 63°
2026-04-22 13:59 11.89200 121.88905 1351 ft 135 kts 64°
2026-04-22 13:59 11.89599 121.89704 1205 ft 121 kts 62°
2026-04-22 13:59 11.89996 121.90493 1064 ft 129 kts 62°
2026-04-22 14:00 11.90408 121.91313 895 ft 128 kts 63°
2026-04-22 14:00 11.90810 121.92116 722 ft 132 kts 62°
2026-04-22 14:00 11.91263 121.92975 701 ft 131 kts 62°
2026-04-22 14:00 11.91666 121.93800 356 ft 131 kts 63°
2026-04-22 14:01 11.92068 121.94601 147 ft 122 kts 62°
2026-04-22 14:01 11.92432 121.95345 28 ft 109 kts 64°
2026-04-22 14:01 11.92677 121.95839 29 ft 46 kts 63°
2026-04-22 14:01 11.92779 121.96042 27 ft 24 kts 63°
2026-04-22 14:02 11.92843 121.96170 24 ft 18 kts 63°
2026-04-22 14:02 11.92900 121.96284 24 ft 18 kts 62°
2026-04-22 14:02 11.92945 121.96372 25 ft 13 kts 63°
2026-04-22 14:02 11.92973 121.96443 25 ft 10 kts 93°
2026-04-22 14:03 11.92956 121.96462 27 ft 4 kts 149°
2026-04-22 14:03 11.92924 121.96477 24 ft 5 kts 153°
2026-04-22 14:03 11.92888 121.96496 25 ft 7 kts 152°
2026-04-22 14:03 11.92841 121.96520 25 ft 8 kts 153°
2026-04-22 14:04 11.92795 121.96516 28 ft 7 kts 228°
2026-04-22 14:04 11.92773 121.96471 27 ft 7 kts 242°
2026-04-22 14:04 11.92751 121.96427 28 ft 7 kts 242°
2026-04-22 14:04 11.92728 121.96387 25 ft 4 kts 219°
2026-04-22 14:05 11.92700 121.96399 28 ft 4 kts 153°
2026-04-22 14:05 11.92689 121.96405 25 ft 0 kts 153°